This is the latest recevied weather packets stored in our database for station/object KC4LZN. If no packets are shown the sender has not sent any weather packets the latest 10 day(s).
| Time | Temp. | Humidity | Pressure | Rain* | Wind** | Luminosity | Snow |
|---|---|---|---|---|---|---|---|
| 1777587998 | 28.89° C | 61% | 1010.3 hPa | 0 mm | - | 192 W/m² | - |
| 1777587694 | 29.44° C | 59% | 1010.2 hPa | 0 mm | - | 183 W/m² | - |
| 1777587394 | 29.44° C | 59% | 1010.4 hPa | 0 mm | - | 209 W/m² | - |
| 1777587090 | 28.89° C | 59% | 1010.4 hPa | 0 mm | - | 240 W/m² | - |
| 1777586786 | 28.89° C | 60% | 1010.5 hPa | 0 mm | - | 244 W/m² | - |
| 1777586482 | 29.44° C | 59% | 1010.6 hPa | 0 mm | - | 203 W/m² | - |
| 1777586177 | 29.44° C | 58% | 1010.3 hPa | 0 mm | - | 302 W/m² | - |
| 1777585875 | 29.44° C | 59% | 1010.5 hPa | 0 mm | - | 296 W/m² | - |
| 1777585570 | 29.44° C | 59% | 1010.2 hPa | 0 mm | - | 353 W/m² | - |
| 1777585266 | 29.44° C | 58% | 1010 hPa | 0 mm | - | 142 W/m² | - |
| 1777584961 | 29.44° C | 58% | 1010.2 hPa | 0 mm | - | 139 W/m² | - |
| 1777584658 | 29.44° C | 57% | 1010.3 hPa | 0 mm | - | 144 W/m² | - |
| 1777584356 | 29.44° C | 56% | 1010.1 hPa | 0 mm | - | 176 W/m² | - |
| 1777584052 | 30° C | 55% | 1010.3 hPa | 0 mm | - | 199 W/m² | - |
| 1777583752 | 30° C | 55% | 1010.2 hPa | 0 mm | - | 222 W/m² | - |
| 1777583451 | 30° C | 55% | 1010.1 hPa | 0 mm | - | 220 W/m² | - |
| 1777583151 | 30.56° C | 54% | 1010.1 hPa | 0 mm | - | 213 W/m² | - |
| 1777582847 | 30.56° C | 53% | 1010.5 hPa | 0 mm | - | 289 W/m² | - |
| 1777582544 | 30.56° C | 51% | 1010.4 hPa | 0 mm | - | 334 W/m² | - |
| 1777582239 | 30.56° C | 52% | 1010.3 hPa | 0 mm | - | 641 W/m² | - |
| 1777581937 | 30.56° C | 51% | 1010.5 hPa | 0 mm | - | 261 W/m² | - |
| 1777581632 | 31.11° C | 49% | 1010.3 hPa | 0 mm | - | 265 W/m² | - |
| 1777581326 | 31.67° C | 48% | 1010.5 hPa | 0 mm | - | 378 W/m² | - |
| 1777581022 | 31.11° C | 48% | 1010.3 hPa | 0 mm | - | 588 W/m² | - |
| 1777580721 | 31.67° C | 47% | 1010.6 hPa | 0 mm | - | 603 W/m² | - |
* Rain latest hour (hover to see other rain measurements)
** Current wind speed in m/s (hover to see current wind gust speed)